{"data":{"norad_id":29505,"intl_designator":"2006-046A","name":"SHIJIAN-6 02A (SJ-6 02A)","alt_names":[],"object_type":"PAYLOAD","status":"ACTIVE","operator":null,"country":"PRC","launch_date":"2006-10-23","launch_site_code":"TAISC","launch_vehicle":null,"mission":null,"orbit_class":"UNKNOWN","rcs_meters":1.159,"size_class":null,"mass_kg":null,"dimensions":null,"purposes":["science"],"wikipedia_slug":null,"has_3d_model":false,"image_url":null,"decayed_at":null,"tle_current":{"epoch":"2026-05-25T04:47:53.328192Z","epoch_age_seconds":68254,"freshness":"FRESH","line1":"1 29505U 06046A   26145.19992278  .00005348  00000+0  27703-3 0  9993","line2":"2 29505  97.6375 186.0976 0002593 187.2213 172.8983 15.16629714 68789","mean_motion":15.16629714,"eccentricity":0.0002593,"inclination_deg":97.6375,"raan_deg":186.0976,"arg_perigee_deg":187.2213,"mean_anomaly_deg":172.8983,"bstar":0.00027703,"rev_number":6878,"period_min":94.947368280297,"perigee_km":514.24765990886,"apogee_km":517.82297767338,"semimajor_km":6894.1723187911,"source":"CELESTRAK","updated_at":"2026-05-25T13:38:24.638919Z"}}}